Location: Altleiningen
(49.5078°N, 8.0741°E)
Time: 16:39:01
(UTC+00:00)

Meteor 1-12 Rocket - Pass Details

Date: 14 June 2025
Orbit: 855 x 924 km, 81.2° (Epoch: 19 July)

Event Time Altitude Azimuth Distance (km) Brightness Sun altitude
Rises 21:18:23 0° 348° (NNW) 3,513 9.0 -11.7°
Reaches altitude 10° 21:20:50 10° 350° (N) 2,579 8.0 -11.9°
Maximum altitude 21:26:44 80° 78° (ENE) 926 4.4 -12.3°
Enters shadow 21:31:30 17° 164° (SSE) 2,161 5.7 -12.7°
